Regional Weather Roundup
Issued by NWS Newport/Morehead, NC

Current Version | Previous Version | Graphics & Text | Print | Product List | Glossary Off
Versions: 1 2 3 4 5 6 7 8 9 10 11 12 13 14 15 16 17 18 19 20 21 22 23 24 25 26 27 28 29 30 31 32 33 34 35 36 37 38 39 40 41 42 43 44 45 46 47 48 49 50
000 ASUS42 KMHX 281513 RWRMHX WEATHER ROUNDUP FOR EASTERN NORTH CAROLINA NATIONAL WEATHER SERVICE NEWPORT/MOREHEAD CITY NC 1100 AM EDT SUN AUG 28 2016 NOTE: "FAIR" INDICATES FEW OR NO CLOUDS BELOW 12,000 FEET WITH NO SIGNIFICANT WEATHER AND/OR OBSTRUCTIONS TO VISIBILITY NCZ015>017-031-032-045>047-102-103-281600- NORTH COAST CITY SKY/WX TMP DP RH WIND PRES REMARKS EDENTON PTSUNNY 86 74 67 NE12 30.18R ELIZABETH CITY PTSUNNY 85 75 72 NE16 30.17S KITTY HAWK PTSUNNY 86 81 85 NE5 30.15R HX 101 MANTEO PTSUNNY 83 78 85 NE12 30.16S $$ NCZ045>047-081-094-103-104-281600- CENTRAL COAST CITY SKY/WX TMP DP RH WIND PRES REMARKS FRISCO HVY RAIN 81 77 88 E7 30.14R FOG $$ NCZ095-097-098-100-101-281600- SOUTHERN COAST CITY SKY/WX TMP DP RH WIND PRES REMARKS BEAUFORT CLOUDY 84 77 79 N9 30.13S CEDAR ISLAND NOT AVBL JACKSONVILLE CLOUDY 81 74 79 N8 30.15R PINEY ISLAND NOT AVBL WILMINGTON CLOUDY 85 75 72 N9 30.14R $$ NCZ011>013-027>030-043-044-078>080-089-090>093-098-281600- COASTAL PLAIN CITY SKY/WX TMP DP RH WIND PRES REMARKS AHOSKIE MOSUNNY 81 73 75 N12 30.19S CLINTON PTSUNNY 80 74 80 NE5 30.18S ELIZABETHTOWN MOSUNNY 82 73 73 N3 30.17R GOLDSBORO CLOUDY 80 77 91 N9 30.17R GREENVILLE CLOUDY 81 75 83 N10 30.19S HAVELOCK CLOUDY 82 76 81 N10 30.15S KENANSVILLE PTSUNNY 82 73 74 NE6 30.17S KINSTON N/A 82 73 74 N9 30.18R NEW BERN CLOUDY 81 75 82 N8 30.16S RICHLANDS PTSUNNY 82 75 78 NE10 30.17R ROCKY MOUNT PTSUNNY 82 73 74 NE8 30.19S WASHINGTON MOSUNNY 81 75 82 N8 30.17S WHITEVILLE SUNNY 83 72 69 NE7 30.15R $$ AMZ130-135-150-152-154-156-158-170-250-252-270-ANZ085-086-088-633-658-670-281600- MARINE OBSERVATIONS STATION/POSITION TIME TEMP WIND PRES WAVE SWELL AIR SEA DIR/SP/G HT/PER HT/PER (UTC) (F) (DEG/KT/KT) (MB) (FT/S) (FT/S) CHESAPEAKE LIGHT NOT AVBL 64 E VA BEACH 1450 81 81 50/ 16/ 17 1020.9 4/ 6 2/ 9 DUCK 1400 80 77 30/ 15/ 16 1020.5 2 E DUCK 1411 79 N/A 4/ 6 OREGON INLET 1400 81 78 30/ 7/ 10 1020.5 13E OREGON INLT 1400 79 N/A 3/ 8 3/ 8 HATTERAS CG 1400 82 83 20/ 4/ 5 1020.0 DIAMOND BUOY 1450 84 85 90/ 8/ 10 1020.4 3/ 8 2/ 8 CAPE LOOKOUT 1500 83 40/ 8/ 9 1020.0 BEAUFORT LAB 1400 81 82 10/ 6/ 9 1019.7 30 SE NEW RVR IN 1408 82 84 40/ 12/ 16 1019.9 30 SE NEW RVR IN 1425 84 N/A 3/ 9 27 SE WRIGHTSVLE 1408 82 83 20/ 14/ 17 1019.9 5 SE WRIGHTSVLE NOT AVBL 225 S CAPE HAT 1450 83 84 70/ 10/ 12 1018.4 3/ 9 3/ 9 41 SE CHARLESTON 1450 84 85 70/ 10/ 12 1018.8 3/ 8 3/ 8 $$

USA.gov is the U.S. government's official web portal to all federal, state and local government web resources and services.